Regional Weather Roundup
Issued by NWS

Home | Current Version | Previous Version | Text Only | Print | Product List | Glossary Off
Versions: 1 2 3 4 5 6 7 8 9 10 11 12 13 14 15 16 17 18 19 20 21 22 23 24 25 26 27 28 29 30 31 32 33 34 35 36 37 38 39 40 41 42 43 44 45 46 47 48 49 50

000
ASUS43 KDMX 241203
RWRIA

WEATHER ROUNDUP FOR IOWA
NATIONAL WEATHER SERVICE DES MOINES IA
700 AM CDT TUE MAY 24 2016

NOTE: "FAIR" INDICATES FEW OR NO CLOUDS BELOW 12,000 FEET WITH NO
SIGNIFICANT WEATHER AND/OR OBSTRUCTIONS TO VISIBILITY.

* - THESE STATIONS ARE NOT NWS STATIONS...THUS NOT UNDER NWS
QUALITY CONTROL.  THEY ALSO DO NOT REPORT WEATHER SUCH
AS PRECIPITATION OR FOG.

IAZ001>003-012>014-020>022-031>034-043>046-241300-
   NORTHWEST IOWA

CITY           SKY/WX    TMP DP  RH WIND       PRES   REMARKS
CARROLL *      SUNNY     63  61  94 S9        29.87R
CHEROKEE *     CLOUDY    57  57 100 S5        29.87R FOG
DENISON *      SUNNY     61  61 100 CALM      29.87R
LE MARS *      CLOUDY    63  61  94 S9G17     29.87R
ORANGE CITY *  CLOUDY    61  61 100 S6        29.86R FOG
SHELDON *      CLOUDY    61  61 100 S8        29.85R
SIOUX CITY     CLOUDY    61  59  93 S6        29.87R FOG
SPENCER        CLOUDY    60  58  92 SW5       29.87R
6HR MIN TEMP:  60; 6HR MAX TEMP:  64;

STORM LAKE *   SUNNY     59  59 100 S8        29.88R
$$

IAZ055>058-069>071-079>083-090>094-241300-
   SOUTHWEST IOWA

CITY           SKY/WX    TMP DP  RH WIND       PRES   REMARKS
ATLANTIC *     CLOUDY    63  61  94 CALM      29.88R
AUDUBON *      SUNNY     61  57  88 S7        29.90R
CLARINDA *       N/A     64  63  94 MISG      29.91R
COUNCIL BLFS * CLOUDY    63  63 100 S10       29.90R
CRESTON *      PTSUNNY   63  61  94 S9        29.90S
HARLAN  *        N/A    N/A N/A N/A MISG        N/A
LAMONI         CLOUDY    63  61  93 S8        29.90R
6HR MIN TEMP:  61; 6HR MAX TEMP:  66; 6HR PCP:  0.06;

RED OAK *      CLOUDY    64  63  94 S6        29.90R
SHENANDOAH *   SUNNY     66  64  94 S6        29.89R
$$

IAZ047>049-059>061-072>074-084-241300-
   CENTRAL IOWA

CITY           SKY/WX    TMP DP  RH WIND       PRES   REMARKS
AMES           CLOUDY    62  60  93 S3        29.87S
6HR MIN TEMP:  58; 6HR MAX TEMP:  64; 6HR PCP:  0.16;

ANKENY *       CLOUDY    63  63 100 CALM      29.87S FOG
BOONE *        SUNNY     63  61  94 S6        29.86R
CHARITON *     SUNNY     63  61  94 S6        29.89R
DES MOINES     CLOUDY    64  61  90 S5        29.87F FOG
6HR MIN TEMP:  63; 6HR MAX TEMP:  68; 6HR PCP:  0.12;

GRINNELL*      CLOUDY    61  58  89 SE5       29.90S
KNOXVILLE *    CLOUDY    64  59  82 CALM      29.87F
MARSHALLTOWN   CLOUDY    63  62  97 SE7       29.87S
6HR MIN TEMP:  62; 6HR MAX TEMP:  66; 6HR PCP:  0.14;

NEWTON *       PTSUNNY   63  63 100 SE5       29.87F
PERRY *          N/A     63  61  94 SE7       29.87S
$$

IAZ004>006-015-016-023>025-035-036-241300-
   NORTH CENTRAL IOWA

CITY           SKY/WX    TMP DP  RH WIND       PRES   REMARKS
ALGONA *       SUNNY     61  59  94 SW9       29.86R
CLARION *      SUNNY     61  61 100 S8        29.86S
ESTHERVILLE    CLOUDY    60  59  96 SW9       29.86R
6HR MIN TEMP:  59; 6HR MAX TEMP:  64;

FORT DODGE *   CLOUDY    59  55  88 CALM      29.87R
MASON CITY     CLOUDY    61  60  97 W7        29.86S
6HR MIN TEMP:  61; 6HR MAX TEMP:  66; 6HR PCP:  0.01;

FOREST CITY *  SUNNY     59  57  94 CALM      29.85S
WEBSTER CITY *   N/A     61  59  94 CALM      29.85S
IOWA FALLS *     N/A     63  60  91 S5        29.88S
$$

IAZ007>011-017>019-026>030-037>042-050>054-066-241300-
   NORTHEAST IOWA

CITY           SKY/WX    TMP DP  RH WIND       PRES   REMARKS
CEDAR RAPIDS   PTSUNNY   63  61  93 S6        29.91F
6HR MIN TEMP:  61; 6HR MAX TEMP:  67; 6HR PCP:  0.05;

CHARLES CITY * PTSUNNY   63  63 100 CALM      29.87R
CLINTON *      SUNNY     63  55  75 S6        29.96R
DECORAH *      MOSUNNY   64  59  82 S5        29.86F
DUBUQUE        MOSUNNY   63  53  70 S8        29.92F
6HR MIN TEMP:  59; 6HR MAX TEMP:  66;

MONTICELLO *   CLOUDY    64  57  77 S9        29.92S
OELWEIN *      CLOUDY    64  63  94 S10       29.89F
WATERLOO       CLOUDY    64  60  87 S9        29.88R
6HR MIN TEMP:  63; 6HR MAX TEMP:  68; 6HR PCP:  0.02;

$$

IAZ064-065-067-068-078-241300-
   EAST CENTRAL IOWA

CITY           SKY/WX    TMP DP  RH WIND       PRES   REMARKS
DAVENPORT      MOSUNNY   66  53  63 S8        29.96R
6HR MIN TEMP:  62; 6HR MAX TEMP:  68;

IOWA CITY      CLOUDY    63  61  93 SE3       29.94S
6HR MIN TEMP:  62; 6HR MAX TEMP:  65; 6HR PCP:  0.02;

MT. PLEASANT * CLOUDY    66  57  72 S5        29.96R
MUSCATINE *    CLOUDY    66  55  68 S5        29.95S
QUAD CITIES    SUNNY     67  53  61 CALM      29.95R
6HR MIN TEMP:  59; 6HR MAX TEMP:  68;

$$

IAZ062-063-075>077-085>089-095>099-241300-
   SOUTHEAST IOWA

CITY           SKY/WX    TMP DP  RH WIND       PRES   REMARKS
BURLINGTON     SUNNY     64  57  78 S7        29.97R
6HR MIN TEMP:  60; 6HR MAX TEMP:  66;

FAIRFIELD *      N/A    N/A N/A N/A MISG        N/A
FORT MADISON * MOSUNNY   66  59  77 S5        29.97R
KEOKUK *       SUNNY     64  57  77 SE3       29.96R
OSKALOOSA *      N/A     63  59  87 SE9       29.87F
OTTUMWA        CLOUDY    64  59  83 SE10      29.87F
6HR MIN TEMP:  63; 6HR MAX TEMP:  66; 6HR PCP: TRACE;

WASHINGTON *   PTSUNNY   64  57  77 S8        29.95S
$$

ABBREVIATIONS USED IN REMARKS
   TC - TEMPERATURES IN CELSIUS
  WCI - WIND CHILL INDEX
   HX - HEAT INDEX
  VSB - VISIBILITY
$$





USA.gov is the U.S. government's official web portal to all federal, state and local government web resources and services.